• In Belarus
  • List of Countries
  • For 7 days
  • Water Temperature
  • Satellite Maps
  • Weather Map
  • Weather Widgets
  • user-avatar
    Login

    Hourly Weather Juticalpa

    Today, 12 December, Tuesday

    Time Temperature Precipitation Wind Pressure Humidity
    00:00 +18°C° 0 mm 1 mps 730 mmHg 92%
    01:00 +18°C° 0 mm 1 mps 730 mmHg 92%
    02:00 +16°C° 0 mm 1 mps 730 mmHg 92%
    03:00 +16°C° 0 mm 1 mps 730 mmHg 92%
    04:00 +16°C° 0 mm 1 mps 730 mmHg 92%
    05:00 +16°C° 0 mm 1 mps 730 mmHg 92%
    06:00 +16°C° 0 mm 1 mps 730 mmHg 92%
    07:00 +19°C° 0 mm 1 mps 730 mmHg 84%
    08:00 +22°C° 0 mm 1 mps 731 mmHg 76%
    09:00 +24°C° 0 mm 1 mps 731 mmHg 68%
    10:00 +25°C° 0 mm 1 mps 731 mmHg 66%
    11:00 +26°C° 0 mm 2 mps 730 mmHg 64%
    12:00 +27°C° 0 mm 2 mps 730 mmHg 62%
    13:00 +27°C° 0 mm 2 mps 730 mmHg 64%
    14:00 +26°C° 0 mm 2 mps 729 mmHg 66%
    15:00 +26°C° 0 mm 2 mps 729 mmHg 68%
    16:00 +25°C° 0 mm 2 mps 729 mmHg 74%
    17:00 +23°C° 0 mm 1 mps 729 mmHg 80%
    18:00 +22°C° 0 mm 1 mps 729 mmHg 86%
    19:00 +21°C° 0 mm 1 mps 730 mmHg 88%
    20:00 +21°C° 0 mm 1 mps 730 mmHg 91%
    21:00 +20°C° 0 mm 1 mps 731 mmHg 93%
    22:00 +20°C° 0 mm 1 mps 730 mmHg 93%
    23:00 +20°C° 0 mm 1 mps 730 mmHg 94%

    Tomorrow, 13 December, Wednesday

    Time Temperature Precipitation Wind Pressure Humidity
    00:00 +20°C° 0 mm 1 mps 730 mmHg 94%
    01:00 +20°C° 0.1 mm 1 mps 730 mmHg 93%
    02:00 +20°C° 0.1 mm 1 mps 730 mmHg 92%
    03:00 +20°C° 0.1 mm 1 mps 729 mmHg 92%
    04:00 +20°C° 0 mm 1 mps 730 mmHg 93%
    05:00 +20°C° 0 mm 1 mps 730 mmHg 94%
    06:00 +20°C° 0 mm 1 mps 730 mmHg 95%
    07:00 +21°C° 0 mm 1 mps 731 mmHg 87%
    08:00 +23°C° 0 mm 1 mps 731 mmHg 79%
    09:00 +25°C° 0 mm 2 mps 731 mmHg 72%
    10:00 +25°C° 0 mm 2 mps 731 mmHg 69%
    11:00 +26°C° 0 mm 2 mps 731 mmHg 65%
    12:00 +26°C° 0 mm 2 mps 730 mmHg 62%
    13:00 +26°C° 0 mm 2 mps 730 mmHg 63%
    14:00 +26°C° 0 mm 2 mps 729 mmHg 63%
    15:00 +26°C° 0 mm 2 mps 729 mmHg 64%
    16:00 +25°C° 0 mm 1 mps 729 mmHg 71%
    17:00 +23°C° 0 mm 1 mps 729 mmHg 78%
    18:00 +22°C° 0 mm 1 mps 729 mmHg 84%
    19:00 +21°C° 0 mm 1 mps 730 mmHg 88%
    20:00 +20°C° 0 mm 1 mps 730 mmHg 91%
    21:00 +19°C° 0 mm 1 mps 730 mmHg 94%
    22:00 +19°C° 0 mm 1 mps 730 mmHg 95%
    23:00 +17°C° 0 mm 0 mps 730 mmHg 96%

    Day after tomorrow, 14 December, Thursday

    Time Temperature Precipitation Wind Pressure Humidity
    00:00 +16°C° 0 mm 0 mps 729 mmHg 97%
    01:00 +16°C° 0 mm 0 mps 729 mmHg 97%
    02:00 +16°C° 0 mm 0 mps 728 mmHg 98%
    03:00 +16°C° 0 mm 0 mps 728 mmHg 98%
    04:00 +16°C° 0 mm 0 mps 728 mmHg 98%
    05:00 +15°C° 0 mm 0 mps 728 mmHg 98%
    06:00 +15°C° 0 mm 0 mps 728 mmHg 98%
    07:00 +18°C° 0 mm 0 mps 729 mmHg 86%
    08:00 +21°C° 0 mm 0 mps 729 mmHg 73%
    09:00 +24°C° 0 mm 0 mps 730 mmHg 61%
    10:00 +27°C° 0 mm 1 mps 729 mmHg 55%
    11:00 +29°C° 0 mm 1 mps 729 mmHg 50%
    12:00 +30°C° 0 mm 1 mps 728 mmHg 44%
    13:00 +30°C° 0 mm 1 mps 728 mmHg 46%
    14:00 +30°C° 0 mm 1 mps 727 mmHg 48%
    15:00 +30°C° 0 mm 1 mps 726 mmHg 49%
    16:00 +28°C° 0 mm 1 mps 727 mmHg 59%
    17:00 +26°C° 0 mm 1 mps 727 mmHg 68%
    18:00 +24°C° 0 mm 1 mps 727 mmHg 78%
    19:00 +23°C° 0 mm 1 mps 728 mmHg 83%
    20:00 +22°C° 0 mm 1 mps 728 mmHg 87%
    21:00 +19°C° 0 mm 0 mps 729 mmHg 92%
    22:00 +19°C° 0 mm 0 mps 729 mmHg 94%
    23:00 +19°C° 0 mm 0 mps 728 mmHg 96%

    15 December, Friday

    Time Temperature Precipitation Wind Pressure Humidity
    00:00 +18°C° 0 mm 0 mps 728 mmHg 97%
    01:00 +18°C° 0 mm 0 mps 728 mmHg 97%
    02:00 +18°C° 0 mm 0 mps 727 mmHg 98%
    03:00 +18°C° 0 mm 0 mps 727 mmHg 98%
    04:00 +18°C° 0 mm 0 mps 727 mmHg 98%
    05:00 +18°C° 0 mm 0 mps 727 mmHg 98%
    06:00 +18°C° 0 mm 0 mps 728 mmHg 98%
    07:00 +21°C° 0 mm 0 mps 728 mmHg 88%
    08:00 +23°C° 0 mm 0 mps 729 mmHg 77%
    09:00 +25°C° 0 mm 0 mps 730 mmHg 67%
    10:00 +28°C° 0 mm 1 mps 729 mmHg 65%
    11:00 +29°C° 0 mm 1 mps 728 mmHg 63%
    12:00 +30°C° 0 mm 1 mps 728 mmHg 61%
    13:00 +30°C° 0 mm 1 mps 727 mmHg 59%
    14:00 +31°C° 0 mm 1 mps 727 mmHg 58%
    15:00 +31°C° 0 mm 1 mps 726 mmHg 56%
    16:00 +29°C° 0 mm 1 mps 727 mmHg 65%
    17:00 +27°C° 0 mm 1 mps 727 mmHg 74%
    18:00 +23°C° 0 mm 0 mps 727 mmHg 83%
    19:00 +24°C° 0.1 mm 1 mps 728 mmHg 86%
    20:00 +24°C° 0.1 mm 1 mps 729 mmHg 89%
    21:00 +23°C° 0.1 mm 1 mps 729 mmHg 92%
    22:00 +23°C° 0.1 mm 1 mps 729 mmHg 94%
    23:00 +23°C° 0.1 mm 1 mps 729 mmHg 95%

    16 December, Saturday

    Time Temperature Precipitation Wind Pressure Humidity
    00:00 +21°C° 0.1 mm 0 mps 729 mmHg 97%
    01:00 +22°C° 0 mm 1 mps 729 mmHg 97%
    02:00 +22°C° 0 mm 1 mps 728 mmHg 97%
    03:00 +22°C° 0 mm 1 mps 728 mmHg 98%
    04:00 +22°C° 0 mm 1 mps 729 mmHg 98%
    05:00 +22°C° 0 mm 1 mps 729 mmHg 98%
    06:00 +22°C° 0 mm 1 mps 729 mmHg 98%
    07:00 +24°C° 0 mm 1 mps 730 mmHg 90%
    08:00 +25°C° 0 mm 1 mps 730 mmHg 83%
    09:00 +27°C° 0 mm 1 mps 731 mmHg 75%
    10:00 +28°C° 0.5 mm 1 mps 730 mmHg 75%
    11:00 +28°C° 0.5 mm 2 mps 730 mmHg 75%
    12:00 +29°C° 0.5 mm 2 mps 729 mmHg 75%
    13:00 +28°C° 1.3 mm 2 mps 728 mmHg 80%
    14:00 +27°C° 1.3 mm 2 mps 728 mmHg 85%
    15:00 +27°C° 1.3 mm 1 mps 727 mmHg 89%
    16:00 +26°C° 0.7 mm 1 mps 728 mmHg 92%
    17:00 +25°C° 0.7 mm 1 mps 728 mmHg 94%
    18:00 +24°C° 0.7 mm 1 mps 728 mmHg 97%
    19:00 +23°C° 0.1 mm 1 mps 729 mmHg 97%
    20:00 +23°C° 0.1 mm 1 mps 729 mmHg 98%
    21:00 +23°C° 0.1 mm 1 mps 730 mmHg 98%
    22:00 +23°C° 0 mm 1 mps 729 mmHg 98%
    23:00 +20°C° 0 mm 0 mps 729 mmHg 98%

    17 December, Sunday

    Time Temperature Precipitation Wind Pressure Humidity
    00:00 +20°C° 0 mm 0 mps 729 mmHg 98%
    01:00 +20°C° 0 mm 0 mps 728 mmHg 98%
    02:00 +20°C° 0 mm 0 mps 728 mmHg 98%
    03:00 +20°C° 0 mm 0 mps 728 mmHg 98%
    04:00 +19°C° 0 mm 0 mps 728 mmHg 98%
    05:00 +19°C° 0 mm 0 mps 728 mmHg 98%
    06:00 +19°C° 0 mm 0 mps 728 mmHg 98%
    07:00 +22°C° 0.1 mm 1 mps 729 mmHg 96%
    08:00 +23°C° 0.1 mm 1 mps 729 mmHg 94%
    09:00 +24°C° 0.1 mm 1 mps 730 mmHg 92%
    10:00 +25°C° 0.2 mm 1 mps 729 mmHg 87%
    11:00 +26°C° 0.2 mm 1 mps 729 mmHg 82%
    12:00 +27°C° 0.2 mm 2 mps 728 mmHg 78%
    13:00 +27°C° 0.5 mm 2 mps 728 mmHg 79%
    14:00 +27°C° 0.5 mm 2 mps 727 mmHg 81%
    15:00 +27°C° 0.5 mm 2 mps 726 mmHg 83%
    16:00 +26°C° 0.4 mm 2 mps 727 mmHg 87%
    17:00 +25°C° 0.4 mm 1 mps 727 mmHg 92%
    18:00 +24°C° 0.4 mm 1 mps 727 mmHg 96%
    19:00 +23°C° 0.2 mm 1 mps 728 mmHg 97%
    20:00 +23°C° 0.2 mm 1 mps 728 mmHg 97%
    21:00 +23°C° 0.2 mm 1 mps 729 mmHg 98%
    22:00 +22°C° 0.1 mm 1 mps 728 mmHg 98%
    23:00 +22°C° 0.1 mm 1 mps 728 mmHg 98%
    Show more